F4MNZ-13 Weather Reports


time (UTC)temp
C
wind
direction
speed
KPH
gust
KPH
rain 1hr
cm
rain 24hr
cm
rain mn
cm
humidity
%
barometer
mb
20260504151000 12 219 4.8 6.4 0.00 0.05 0.05 79 1016.0
20260504150501 12 171 3.2 12.9 0.00 0.05 0.05 78 1016.0
20260504140500 17 241 6.4 16.1 0.00 0.05 0.05 73 1014.7
20260504130500 -17 0.0 0.0 0.00 0.05 0.05 1015.0
20260504110500 17 337 3.2 16.1 0.00 0.03 0.03 71 1016.3
20260504100459 16 128 1.6 9.7 0.00 0.03 0.03 72 1016.7
20260504082002 13 44 4.8 4.8 0.03 0.03 0.03 88 1017.5
20260504081501 13 269 3.2 4.8 0.03 0.03 0.03 88 1017.6
20260504081001 12 165 1.6 1.6 0.03 0.03 0.03 91 1017.6
20260504080458 12 93 0.0 1.6 0.03 0.03 0.03 91 1017.7
20260504045500 -17 0.0 0.0 0.00 0.00 0.00 1017.2
20260504045001 -17 0.0 0.0 0.00 0.00 0.00 1017.0
20260504044000 -17 0.0 0.0 0.00 0.00 0.00 1016.8
20260504042959 -17 0.0 0.0 0.00 0.00 0.00 1016.6
20260504040959 -17 0.0 0.0 0.00 0.00 0.00 1016.6
20260504040500 -17 0.0 0.0 0.00 0.00 0.00 1016.6
20260504040000 9 122 1.6 3.2 0.00 0.00 0.00 93 1016.5
20260504035500 9 122 1.6 3.2 0.00 0.00 0.00 93 1016.4
20260504034959 9 122 0.0 3.2 0.00 0.00 0.00 93 1016.3
20260504034500 10 122 1.6 4.8 0.00 0.00 0.00 93 1016.3
20260504034000 10 215 0.0 8.0 0.00 0.00 0.00 94 1016.2
20260504033500 10 231 3.2 8.0 0.00 0.00 0.00 94 1016.2
20260504033002 -17 0.0 0.0 0.00 0.00 0.00 1016.3
20260504032458 -17 0.0 0.0 0.00 0.00 0.00 1016.4
20260504031959 -17 0.0 0.0 0.00 0.00 0.00 1016.5
20260504030958 -17 0.0 0.0 0.00 0.00 0.00 1016.4
20260504030459 -17 0.0 0.0 0.00 0.00 0.00 1016.4
20260504025958 -17 0.0 0.0 0.00 0.00 0.00 1016.4
20260504025459 -17 0.0 0.0 0.00 0.00 0.00 1016.4
20260504024959 -17 0.0 0.0 0.00 0.00 0.00 1016.4
20260504023458 -17 0.0 0.0 0.00 0.00 0.00 1016.3
20260504022958 -17 0.0 0.0 0.00 0.00 0.00 1016.3
20260504021959 10 199 0.0 4.8 0.00 0.00 0.00 93 1016.3
20260504021002 10 197 1.6 4.8 0.00 0.00 0.00 93 1016.5
20260504020458 10 213 3.2 3.2 0.00 0.00 0.00 93 1016.4
20260504015459 -17 0.0 0.0 0.00 0.00 0.00 1016.4
20260504014959 -17 0.0 0.0 0.00 0.00 0.00 1016.7
20260504014459 -17 0.0 0.0 0.00 0.00 0.00 1016.7
20260504014000 10 173 1.6 3.2 0.00 0.00 0.00 93 1016.7
20260504013459 10 173 1.6 3.2 0.00 0.00 0.00 93 1016.7
20260504012959 10 173 0.0 4.8 0.00 0.00 0.00 93 1016.7
20260504012459 10 173 0.0 4.8 0.00 0.00 0.00 93 1016.6
20260504011958 10 161 0.0 3.2 0.00 0.00 0.00 93 1016.7
20260504011459 10 156 1.6 3.2 0.00 0.00 0.00 93 1016.7
20260504010958 10 156 1.6 3.2 0.00 0.00 0.00 92 1016.7
20260504010459 10 200 0.0 3.2 0.00 0.00 0.00 93 1016.7
20260504005959 10 200 0.0 3.2 0.00 0.00 0.00 93 1016.6
20260504005458 11 200 0.0 8.0 0.00 0.00 0.00 93 1016.7
20260504004958 11 200 1.6 8.0 0.00 0.00 0.00 93 1016.7
20260504004458 11 200 3.2 8.0 0.00 0.00 0.00 93 1016.7
20260504003458 11 212 3.2 8.0 0.00 0.00 0.00 94 1016.7
20260504003000 11 200 4.8 8.0 0.00 0.00 0.00 94 1016.8
20260504001958 10 236 3.2 4.8 0.00 0.00 0.00 93 1016.8
20260504001503 11 234 3.2 4.8 0.00 0.00 0.00 93 1016.7
20260504000958 11 229 3.2 4.8 0.00 0.00 0.00 94 1016.8
20260504000458 10 107 1.6 6.4 0.00 0.00 0.00 93 1016.9
20260504000000 10 69 1.6 6.4 0.00 0.00 0.00 92 1016.9
20260503235459 10 64 1.6 6.4 0.00 0.00 0.00 91 1017.0
20260503235001 11 38 4.8 8.0 0.00 0.00 0.00 91 1017.0
20260503234458 11 222 3.2 6.4 0.00 0.00 0.00 92 1016.8
20260503233959 11 215 4.8 6.4 0.00 0.00 0.00 92 1017.0
20260503233458 11 209 3.2 4.8 0.00 0.00 0.00 92 1017.0
20260503232500 11 228 0.0 3.2 0.00 0.00 0.00 93 1017.2
20260503231959 11 228 0.0 3.2 0.00 0.00 0.00 92 1017.3
20260503230002 11 228 1.6 3.2 0.00 0.00 0.00 92 1017.4
20260503225502 11 213 1.6 6.4 0.00 0.00 0.00 92 1017.4
20260503224959 11 204 1.6 6.4 0.00 0.00 0.00 92 1017.4
20260503224459 11 230 6.4 6.4 0.00 0.00 0.00 92 1017.5
20260503223959 11 229 4.8 4.8 0.00 0.00 0.00 93 1017.4
20260503223002 11 265 1.6 6.4 0.00 0.00 0.00 92 1017.4
20260503222001 11 133 4.8 6.4 0.00 0.00 0.00 91 1017.4
20260503221459 12 122 1.6 4.8 0.00 0.00 0.00 90 1017.6
20260503220505 12 126 1.6 3.2 0.00 0.00 0.00 90 1017.5
20260503220007 12 118 1.6 3.2 0.00 0.00 0.00 89 1017.5
20260503215501 12 142 1.6 3.2 0.00 0.00 0.00 89 1017.6
20260503215002 12 293 0.0 3.2 0.00 0.00 0.00 89 1017.6
20260503214504 12 293 1.6 3.2 0.00 0.00 0.00 88 1017.5
20260503214002 12 269 0.0 3.2 0.00 0.00 0.00 88 1017.5
20260503213501 12 269 1.6 3.2 0.00 0.00 0.00 88 1017.5
20260503213004 12 269 0.0 4.8 0.00 0.00 0.00 88 1017.6
20260503212501 12 213 3.2 9.7 0.00 0.00 0.00 88 1017.5
20260503212003 12 236 1.6 9.7 0.00 0.00 0.00 88 1017.4
20260503211003 12 244 4.8 8.0 0.00 0.00 0.00 89 1017.3
20260503210003 12 256 4.8 14.5 0.00 0.00 0.00 89 1017.3
20260503205000 13 34 1.6 4.8 0.00 0.00 0.00 87 1017.3
20260503204501 13 306 1.6 4.8 0.00 0.00 0.00 87 1017.2
20260503204001 13 240 1.6 9.7 0.00 0.00 0.00 87 1017.1
20260503203500 13 230 4.8 12.9 0.00 0.00 0.00 88 1017.1
20260503203000 13 238 4.8 12.9 0.00 0.00 0.00 87 1017.1
20260503202500 13 296 3.2 9.7 0.00 0.00 0.00 86 1017.0
20260503201500 13 250 3.2 8.0 0.00 0.00 0.00 83 1016.9
20260503201001 13 194 3.2 8.0 0.00 0.00 0.00 83 1016.9
20260503200004 -17 0.0 0.0 0.00 0.00 0.00 1016.8
20260503195501 -17 0.0 0.0 0.00 0.00 0.00 1016.7
20260503195000 -17 0.0 0.0 0.00 0.00 0.00 1016.7
20260503194500 13 100 0.0 3.2 0.00 0.00 0.00 85 1016.6
20260503193502 13 100 0.0 1.6 0.00 0.00 0.00 85 1016.6
20260503193000 -17 100 1.6 1.6 0.00 0.00 0.00 1016.3
20260503192500 -17 0.0 0.0 0.00 0.00 0.00 1016.2
20260503191501 -17 0.0 0.0 0.00 0.00 0.00 1016.2
20260503190506 -17 0.0 0.0 0.00 0.00 0.00 1016.0
20260503190003 -17 0.0 0.0 0.00 0.00 0.00 1016.1
20260503185502 -17 0.0 0.0 0.00 0.00 0.00 1016.0
20260503185001 -17 0.0 0.0 0.00 0.00 0.00 1015.9
20260503184501 -17 0.0 0.0 0.00 0.00 0.00 1015.8
20260503184000 -17 0.0 0.0 0.00 0.00 0.00 1015.8
20260503183505 -17 0.0 0.0 0.00 0.00 0.00 1015.7
20260503182504 -17 0.0 0.0 0.00 0.00 0.00 1015.5
20260503182000 15 208 0.0 3.2 0.00 0.00 0.00 79 1015.4
20260503181500 15 208 0.0 3.2 0.00 0.00 0.00 79 1015.4
20260503181000 15 208 1.6 3.2 0.00 0.00 0.00 79 1015.3
20260503180501 15 36 0.0 4.8 0.00 0.00 0.00 79 1015.3
20260503180000 15 49 4.8 4.8 0.00 0.00 0.00 79 1015.2
20260503175000 16 40 1.6 6.4 0.00 0.00 0.00 78 1015.3
20260503174500 16 13 1.6 6.4 0.00 0.00 0.00 78 1015.3
20260503174000 16 82 1.6 6.4 0.00 0.00 0.00 77 1015.4
20260503173502 16 324 0.0 3.2 0.00 0.00 0.00 79 1015.4
20260503173000 16 336 1.6 4.8 0.00 0.00 0.00 79 1015.5
20260503172501 16 44 1.6 4.8 0.00 0.00 0.00 78 1015.6
20260503172000 16 67 1.6 8.0 0.00 0.00 0.00 79 1015.6
20260503171501 16 56 6.4 6.4 0.00 0.00 0.00 77 1015.6
20260503171001 16 56 0.0 4.8 0.00 0.00 0.00 76 1015.7
20260503170501 16 69 1.6 6.4 0.00 0.00 0.00 76 1015.8